Flight Information

DEPARTURE
GRAND JUNCTION, CO
Elevation:
4861
Runways:
11/29 - 10503x150 - ASPH-E
4/22 - 5501x75 - ASPH-G
ATIS:
118.55
Ground:
121.7
Tower:
GRAND JUNCTION TOWER 118.1
DESTINATION
,
Elevation:
TPA:
1000 (est.)


6256 NM78° True-13° Var64° HDG

Flight Plan:
(click to file on line)

1. Type
2. Aircraft Identification
3. Aircraft Type / Special Equipment
4. True Airspeed
kts
5. Departure Airport
(ICAO code)
6. Arriving Airport
(ICAO code)
7. Cruising Altitude
ft
8. Alternate Airport
(ICAO code)
9. Route of Flight
10. Remarks


00:00:00 Departure ATIS: Destination ATIS:

Clearance Limit:
Route:
Altitude: Expect in minutes
Frequency:
Transponder: (7500 Hijack / 7600 Lost Comms / 7700 Emergency)


KGJT 110253Z 24005KT 10SM CLR 16/M14 A2978 RMK AO2 SLP048 T01611144 55002
Time: 2021-04-11T02:53:00Z
1618113310
Winds: 240 @ 5 kts
Visibility: 10.0 sm
Clouds (AGL): CLR
Temperature: 16.1 C
Dew Point: -14.4 C
Pressure: 29.778543 in Hgbr


Notes:

Data extracted from FAA Digital Chart Supplement. Effective: 0901Z Thursday, Feb 25, 2021 to 0901Z Thursday, APR 22, 2021
Current ATIS data is provided courtisy of PilotEdge.